�������l�o���
Date,Time,MP-1(��Sv/h),MP-2(��Sv/h),MP-3(��Sv/h),MP-4(��Sv/h),MP-5(��Sv/h),MP-6(��Sv/h),MP-7(��Sv/h),����,����(m/s),���J
2013/09/13,00:00,0.9,0.6,0.9,0.8,0.8,0.4,0.3,��쐼,0.5,��
2013/09/13,00:10,0.9,0.6,0.9,0.8,0.8,0.4,0.3,��,1.1,��
2013/09/13,00:20,0.9,0.6,0.9,0.8,0.8,0.4,0.3,��,1.0,��
2013/09/13,00:30,0.9,0.6,0.9,0.8,0.8,0.4,0.3,��,1.5,��
2013/09/13,00:40,0.9,0.6,0.9,0.8,0.8,0.4,0.3,��,1.5,��
2013/09/13,00:50,0.9,0.6,0.9,0.8,0.8,0.4,0.3,��,1.1,��
2013/09/13,01:00,0.9,0.6,0.9,0.8,0.8,0.4,0.3,��,1.0,�L
2013/09/13,01:10,0.9,0.6,0.9,0.8,0.8,0.4,0.3,-,CALM,�L
2013/09/13,01:20,0.9,0.6,0.9,0.8,0.8,0.4,0.3,��쐼,1.0,�L
2013/09/13,01:30,0.9,0.6,0.9,0.8,0.8,0.4,0.3,��쐼,1.8,�L
2013/09/13,01:40,0.9,0.6,0.9,0.8,0.8,0.4,0.3,��,1.1,�L
2013/09/13,01:50,0.9,0.6,0.9,0.8,0.8,0.4,0.3,��쐼,0.8,�L
2013/09/13,02:00,0.9,0.6,0.9,0.8,0.8,0.4,0.3,���쐼,0.9,�L
2013/09/13,02:10,0.9,0.6,0.9,0.8,0.8,0.4,0.3,��,1.0,�L
2013/09/13,02:20,0.9,0.6,0.9,0.8,0.8,0.4,0.3,���쐼,1.5,�L
2013/09/13,02:30,0.9,0.6,0.9,0.8,0.8,0.4,0.3,�쐼,1.5,�L
2013/09/13,02:40,0.9,0.6,0.9,0.8,0.8,0.4,0.3,���쐼,1.5,�L
2013/09/13,02:50,0.9,0.6,0.9,0.8,0.8,0.4,0.3,�쐼,2.1,��
2013/09/13,03:00,0.9,0.6,0.9,0.8,0.8,0.4,0.3,��쐼,3.1,�L
2013/09/13,03:10,0.9,0.6,0.9,0.8,0.8,0.4,0.3,�쐼,2.0,�L
2013/09/13,03:20,0.9,0.6,0.9,0.8,0.8,0.4,0.3,�쐼,1.8,�L
2013/09/13,03:30,0.9,0.6,0.9,0.8,0.8,0.4,0.3,��쐼,1.9,��
2013/09/13,03:40,0.9,0.6,0.9,0.8,0.8,0.4,0.3,�k��,0.8,�L
2013/09/13,03:50,0.9,0.6,0.9,0.8,0.8,0.4,0.3,�k�k��,3.4,�L
2013/09/13,04:00,0.9,0.6,0.9,0.8,0.8,0.4,0.3,�k�k��,4.0,�L
2013/09/13,04:10,0.9,0.6,0.9,0.8,0.8,0.4,0.3,�k�k��,3.7,�L
2013/09/13,04:20,0.9,0.6,0.9,0.8,0.8,0.4,0.3,�k�k��,3.9,�L
2013/09/13,04:30,0.9,0.6,0.9,0.8,0.8,0.4,0.3,�k�k��,1.4,�L
2013/09/13,04:40,0.9,0.6,0.9,0.8,0.8,0.4,0.3,�쐼,2.5,�L
2013/09/13,04:50,0.9,0.6,0.9,0.8,0.8,0.4,0.3,�쐼,2.6,�L
2013/09/13,05:00,0.9,0.6,0.9,0.8,0.8,0.4,0.3,�쐼,2.2,�L
2013/09/13,05:10,0.9,0.6,0.9,0.8,0.8,0.4,0.3,��,1.6,�L
2013/09/13,05:20,0.9,0.6,0.9,0.8,0.8,0.4,0.3,���k��,2.3,�L
2013/09/13,05:30,0.9,0.6,0.9,0.8,0.8,0.4,0.3,�k,1.6,�L
2013/09/13,05:40,0.9,0.6,0.9,0.8,0.8,0.4,0.3,�k,1.9,�L
2013/09/13,05:50,0.9,0.6,0.9,0.8,0.8,0.4,0.3,�k,1.7,�L
2013/09/13,06:00,0.9,0.6,0.9,0.8,0.8,0.4,0.3,�k,1.5,��
2013/09/13,06:10,0.9,0.6,0.9,0.8,0.8,0.4,0.3,�k�k��,0.9,��
2013/09/13,06:20,0.9,0.6,0.9,0.8,0.8,0.4,0.3,�k�k��,1.0,��
2013/09/13,06:30,0.9,0.6,0.9,0.8,0.8,0.4,0.3,�k�k��,0.7,��
2013/09/13,06:40,0.9,0.6,0.9,0.8,0.8,0.4,0.3,���k��,1.0,��
2013/09/13,06:50,0.9,0.6,0.9,0.8,0.8,0.4,0.3,�k��,1.0,��
2013/09/13,07:00,0.9,0.6,0.9,0.8,0.8,0.4,0.3,�k�k��,1.4,��
2013/09/13,07:10,0.9,0.6,0.9,0.8,0.8,0.4,0.3,�k,1.9,��
2013/09/13,07:20,0.9,0.6,0.9,0.8,0.8,0.4,0.3,�k�k��,1.6,��
2013/09/13,07:30,0.9,0.6,0.9,0.8,0.8,0.4,0.3,�k�k��,1.4,��
2013/09/13,07:40,0.9,0.6,0.9,0.8,0.8,0.4,0.3,�k�k��,1.4,��
2013/09/13,07:50,0.9,0.6,0.9,0.8,0.8,0.4,0.3,�k�k��,1.0,��
2013/09/13,08:00,0.9,0.6,0.9,0.8,0.8,0.4,0.3,�k�k��,1.2,��
2013/09/13,08:10,0.9,0.6,0.9,0.8,0.8,0.4,0.3,�k��,1.0,��
2013/09/13,08:20,0.9,0.6,0.9,0.8,0.8,0.4,0.3,�k�k��,1.0,��
2013/09/13,08:30,0.9,0.6,0.9,0.8,0.8,0.4,0.3,�k,1.5,��
2013/09/13,08:40,0.9,0.6,0.9,0.8,0.8,0.4,0.3,�k�k��,1.4,��
2013/09/13,08:50,0.9,0.6,0.9,0.8,0.8,0.4,0.3,�k,0.9,��
2013/09/13,09:00,0.9,0.6,0.9,0.8,0.8,0.4,0.3,-,CALM,��
2013/09/13,09:10,0.9,0.6,0.9,0.8,0.8,0.4,0.3,�k�k��,1.0,��
2013/09/13,09:20,0.9,0.6,0.9,0.8,0.8,0.4,0.3,�k�k��,0.9,��
2013/09/13,09:30,0.9,0.6,0.9,0.8,0.8,0.4,0.3,�k,0.9,��
2013/09/13,09:40,0.9,0.6,0.9,0.8,0.8,0.4,0.3,�k�k��,0.5,��
2013/09/13,09:50,0.9,0.6,0.9,0.8,0.8,0.4,0.3,�k�k��,2.0,��
2013/09/13,10:00,0.9,0.6,0.9,0.8,0.8,0.4,0.3,�k�k��,1.5,��
2013/09/13,10:10,0.9,0.6,0.9,0.8,0.8,0.4,0.3,�k�k��,1.3,�L
2013/09/13,10:20,0.9,0.6,0.9,0.8,0.8,0.4,0.3,��,1.1,�L
2013/09/13,10:30,0.9,0.6,0.9,0.8,0.8,0.4,0.3,�k��,1.4,�L
2013/09/13,10:40,0.9,0.6,0.9,0.8,0.8,0.4,0.3,���k��,2.1,�L
2013/09/13,10:50,0.9,0.6,0.9,0.8,0.8,0.4,0.3,���k��,1.9,�L
2013/09/13,11:00,0.9,0.6,0.9,0.8,0.8,0.4,0.3,���k��,1.6,��
2013/09/13,11:10,0.9,0.6,0.9,0.8,0.8,0.4,0.3,���쓌,1.9,��
2013/09/13,11:20,0.9,0.6,0.9,0.8,0.8,0.4,0.3,���쓌,1.4,��
2013/09/13,11:30,0.9,0.6,0.9,0.8,0.8,0.4,0.3,��쓌,1.6,��
2013/09/13,11:40,0.9,0.6,0.9,0.8,0.8,0.4,0.3,�쓌,1.5,��
2013/09/13,11:50,0.9,0.6,0.9,0.8,0.8,0.4,0.3,��쓌,1.5,��
2013/09/13,12:00,0.9,0.6,0.9,0.8,0.8,0.4,0.3,��쓌,1.9,��
2013/09/13,12:10,0.9,0.6,0.9,0.8,0.8,0.4,0.3,�쓌,2.1,��
2013/09/13,12:20,0.9,0.6,0.9,0.8,0.8,0.4,0.3,��쓌,2.3,��
2013/09/13,12:30,0.9,0.6,0.9,0.8,0.8,0.4,0.3,��쓌,1.9,��
2013/09/13,12:40,0.9,0.6,0.9,0.8,0.8,0.4,0.3,��쓌,2.7,��
2013/09/13,12:50,0.9,0.6,0.9,0.8,0.8,0.4,0.3,��,3.1,��
2013/09/13,13:00,0.9,0.6,0.9,0.8,0.8,0.4,0.3,��,3.3,��
2013/09/13,13:10,0.9,0.6,0.9,0.8,0.8,0.4,0.3,��쓌,2.7,��
2013/09/13,13:20,0.9,0.6,0.9,0.8,0.8,0.4,0.3,��쓌,2.4,��
2013/09/13,13:30,0.9,0.6,0.9,0.8,0.8,0.4,0.3,��,2.4,��
2013/09/13,13:40,0.9,0.6,0.9,0.8,0.8,0.4,0.3,��쓌,2.8,��
2013/09/13,13:50,0.9,0.6,0.9,0.8,0.8,0.4,0.3,��쓌,3.5,��
2013/09/13,14:00,0.9,0.6,0.9,0.8,0.8,0.4,0.3,��쓌,3.5,��
2013/09/13,14:10,0.9,0.6,0.9,0.8,0.8,0.4,0.3,��쓌,2.9,��
2013/09/13,14:20,0.9,0.6,0.9,0.8,0.8,0.4,0.3,��,3.0,��
2013/09/13,14:30,0.9,0.6,0.9,0.8,0.8,0.4,0.3,��쓌,3.3,��
2013/09/13,14:40,0.9,0.6,0.9,0.8,0.8,0.4,0.3,��쓌,3.3,��
2013/09/13,14:50,0.9,0.6,0.9,0.8,0.8,0.4,0.3,��쓌,3.1,��
2013/09/13,15:00,0.9,0.6,0.9,0.8,0.8,0.4,0.3,��,2.3,��
2013/09/13,15:10,0.9,0.6,0.9,0.8,0.8,0.4,0.3,��,2.8,��
2013/09/13,15:20,0.9,0.6,0.9,0.8,0.8,0.4,0.3,��,2.8,��
2013/09/13,15:30,0.9,0.6,0.9,0.8,0.8,0.4,0.3,��,3.2,��
2013/09/13,15:40,0.9,0.6,0.9,0.8,0.8,0.4,0.3,��쓌,3.7,��
2013/09/13,15:50,0.9,0.6,0.9,0.8,0.8,0.4,0.3,��,3.6,��
2013/09/13,16:00,0.9,0.6,0.9,0.8,0.8,0.4,0.3,��,3.4,��
2013/09/13,16:10,0.9,0.6,0.9,0.8,0.8,0.4,0.3,��,4.1,��
2013/09/13,16:20,0.9,0.6,0.9,0.8,0.8,0.4,0.3,��,3.7,��
2013/09/13,16:30,0.9,0.6,0.9,0.8,0.8,0.4,0.3,��,3.4,��
2013/09/13,16:40,0.9,0.6,0.9,0.8,0.8,0.4,0.3,��쓌,3.7,��
2013/09/13,16:50,0.9,0.6,0.9,0.8,0.8,0.4,0.3,��쓌,3.9,��
2013/09/13,17:00,0.9,0.6,0.9,0.8,0.8,0.4,0.3,��,3.6,��
2013/09/13,17:10,0.9,0.6,0.9,0.8,0.8,0.4,0.3,��,3.9,��
2013/09/13,17:20,0.9,0.6,0.9,0.8,0.8,0.4,0.3,��,4.0,��
2013/09/13,17:30,0.9,0.6,0.9,0.8,0.8,0.4,0.3,��,4.2,��
2013/09/13,17:40,0.9,0.6,0.9,0.8,0.8,0.4,0.3,��,4.1,��
2013/09/13,17:50,0.9,0.6,0.9,0.8,0.8,0.4,0.3,��,4.2,��
2013/09/13,18:00,0.9,0.6,0.9,0.8,0.8,0.4,0.3,��,3.7,��
2013/09/13,18:10,0.9,0.6,0.9,0.8,0.8,0.4,0.3,��,4.9,��
2013/09/13,18:20,0.9,0.6,0.9,0.8,0.8,0.4,0.3,��,4.9,��
2013/09/13,18:30,0.9,0.6,0.9,0.8,0.8,0.4,0.3,��,4.8,��
2013/09/13,18:40,0.9,0.6,0.9,0.8,0.8,0.4,0.3,��쐼,4.4,��
2013/09/13,18:50,0.9,0.6,0.9,0.8,0.8,0.4,0.3,��쐼,4.4,��
2013/09/13,19:00,0.9,0.6,0.9,0.8,0.8,0.4,0.3,��쐼,4.2,��
2013/09/13,19:10,0.9,0.6,0.9,0.8,0.8,0.4,0.3,��,3.8,��
2013/09/13,19:20,0.9,0.6,0.9,0.8,0.8,0.4,0.3,��,4.5,��
2013/09/13,19:30,0.9,0.6,0.9,0.8,0.8,0.4,0.3,��쐼,5.6,��
2013/09/13,19:40,0.9,0.6,0.9,0.8,0.8,0.4,0.3,��쐼,6.2,��
2013/09/13,19:50,0.9,0.6,0.9,0.8,0.8,0.4,0.3,��쐼,6.8,��
2013/09/13,20:00,0.9,0.6,0.9,0.8,0.8,0.4,0.3,��쐼,6.7,��
2013/09/13,20:10,0.9,0.6,0.9,0.8,0.8,0.4,0.3,��쐼,7.4,��
2013/09/13,20:20,0.9,0.6,0.9,0.8,0.8,0.4,0.3,��쐼,7.2,��
2013/09/13,20:30,0.9,0.6,0.9,0.8,0.8,0.4,0.3,��쐼,6.7,��
2013/09/13,20:40,0.9,0.6,0.9,0.8,0.8,0.4,0.3,��쐼,6.4,��
2013/09/13,20:50,0.9,0.6,0.9,0.8,0.8,0.4,0.3,��쐼,6.8,��
2013/09/13,21:00,0.9,0.6,0.9,0.8,0.8,0.4,0.3,��쐼,7.0,��
2013/09/13,21:10,0.9,0.6,0.9,0.8,0.8,0.4,0.3,��쐼,6.3,��
2013/09/13,21:20,0.9,0.6,0.9,0.8,0.8,0.4,0.3,��쐼,6.2,��
2013/09/13,21:30,0.9,0.6,0.9,0.8,0.8,0.4,0.3,��쐼,5.6,��
2013/09/13,21:40,0.9,0.6,0.9,0.8,0.8,0.4,0.3,��쐼,5.9,��
2013/09/13,21:50,0.9,0.6,0.9,0.8,0.8,0.4,0.3,��쐼,5.4,��
2013/09/13,22:00,0.9,0.6,0.9,0.8,0.8,0.4,0.3,��쐼,7.2,��
2013/09/13,22:10,0.9,0.6,0.9,0.8,0.8,0.4,0.3,��쐼,7.5,��
2013/09/13,22:20,0.9,0.6,0.9,0.8,0.8,0.4,0.3,��쐼,6.3,��
2013/09/13,22:30,0.9,0.6,0.9,0.8,0.8,0.4,0.3,��쐼,4.8,��
2013/09/13,22:40,0.9,0.6,0.9,0.8,0.8,0.4,0.3,��쐼,4.6,��
2013/09/13,22:50,0.9,0.6,0.9,0.8,0.8,0.4,0.3,��쐼,5.0,��
2013/09/13,23:00,0.9,0.6,0.9,0.8,0.8,0.4,0.3,��쐼,5.3,��
2013/09/13,23:10,0.9,0.6,0.9,0.8,0.8,0.4,0.3,��쐼,5.0,��
2013/09/13,23:20,0.9,0.6,0.9,0.8,0.8,0.4,0.3,��,4.8,��
2013/09/13,23:30,0.9,0.6,0.9,0.8,0.8,0.4,0.3,��쐼,5.3,��
2013/09/13,23:40,0.9,0.6,0.9,0.8,0.8,0.4,0.3,��쐼,6.7,��
2013/09/13,23:50,0.9,0.6,0.9,0.8,0.8,0.4,0.3,��쐼,6.2,��
